« Back
NWS Peachtree City, Ga » Text Product » GA Regional Weather Roundup


Printer-friendly Version
Current Version              Previous Versions:   1  2  3  4  5  6  7  8  9  

Regional Weather Roundup

272
ASUS42 KFFC 012003
RWRGA
WEATHER ROUNDUP FOR GEORGIA
NATIONAL WEATHER SERVICE PEACHTREE CITY GA
400 PM EDT WED APR 01 2015

NOTE: "FAIR" INDICATES FEW OR NO CLOUDS BELOW 12,000 FEET WITH NO
SIGNIFICANT WEATHER AND/OR OBSTRUCTIONS TO VISIBILITY.

* = USE WITH CAUTION. THE STATIONS MARKED WITH AN ASTERISK MAY NOT
REPORT WEATHER SUCH AS PRECIPITATION, FOG, OR THUNDER AND ARE NOT
QUALITY CONTROLLED BY NWS.

THE REMARK "TC" DENOTES TEMPERATURE READING IN DEGREES CELSIUS.

GAZ001>058-012100-
NORTH GEORGIA

CITY           SKY/WX    TMP DP  RH WIND       PRES   REMARKS
ATLANTA        PTSUNNY   79  48  33 W7        30.04F
ATHENS         SUNNY     82  35  18 VRB5      30.01F
CHAMBLEE       MOSUNNY   79  41  25 W10       30.03F
PEACHTREE CITY MOSUNNY   79  52  38 W6        30.04F
ROME           SUNNY     79  41  25 N9        30.03F
WEST ATLANTA   MOSUNNY   78  46  32 MISG      30.03F
GAINESVILLE    SUNNY     79  34  19 MISG      30.03F
CARTERSVILLE   SUNNY     77  40  26 CALM      30.04F


CITY           SKY/WX    TMP DP  RH WIND       PRES   REMARKS
DALTON*        SUNNY     73  37  27 CALM      30.06F
MARIETTA       PTSUNNY   80  41  25 NW7G16    30.04F
KENNESAW*      MOSUNNY   77  41  27 W7        30.05F
$$

GAZ059>098-102>109-012100-
CENTRAL GEORGIA

CITY           SKY/WX    TMP DP  RH WIND       PRES   REMARKS
AUGUSTA-BUSH   MOSUNNY   81  49  32 NE8       30.00F
AUGUSTA-DANIEL MOSUNNY   81  48  31 CALM      30.02S
COLUMBUS       SUNNY     79  51  37 VRB3      30.02F
MACON          MOSUNNY   79  53  40 NW6       30.02F
ROBINS AFB     SUNNY     80  55  41 VRB2      30.02F


CITY           SKY/WX    TMP DP  RH WIND       PRES   REMARKS
LAGRANGE*      SUNNY     81  58  45 N8        30.04F
SYLVANIA*      PTSUNNY   78  59  52 S3        30.03S
MILLEDGEVILLE* MOSUNNY   81  55  41 E3        30.02F
$$

GAZ099>101-110>166-012100-
SOUTH GEORGIA

CITY           SKY/WX    TMP DP  RH WIND       PRES   REMARKS
SAVANNAH       MOSUNNY   78  51  38 CALM      30.02F
VALDOSTA       PTSUNNY   84  57  39 MISG      30.03F
ALMA           SUNNY     81  53  37 VRB5      30.03F
ST SIMONS      MOSUNNY   71  61  70 E10       30.04R
FT STEWART     SUNNY     80  55  43 N8        30.00F
ALBANY         SUNNY     82  51  34 VRB6      30.04F
HUNTER AFB     SUNNY     78  55  45 VRB1      30.00F
MOODY AFB      SUNNY     83  54  36 NW12      30.02S
BRUNSWICK      PTSUNNY   81  55  41 NW7       30.03S


CITY           SKY/WX    TMP DP  RH WIND       PRES   REMARKS
BAINBRIDGE*    SUNNY     86  59  39 W9        30.03F
MOULTRIE*      SUNNY     82  52  34 NW6       30.04F
VIDALIA*       MOSUNNY   79  59  50 W3        30.03F
WAYCROSS*      SUNNY     84  59  42 N7        30.02F
DOUGLAS*       SUNNY     81  54  39 NW8       30.04F
$$



USA.gov is the U.S. government's official web portal to all federal, state and local government web resources and services.